Weather in Bautzen

Germany     51°10′50″N   14°25′40″E
temp.,
°C
wind,
m/s
gust,
m/s
humid.,
%
clouds,
%
prec.,
mm/h
press.,
hPa
HPBL,
m
29 may, sun
sun2923:00+7wsw488097 0.1 1015153
02:00+6sw47845 0.1 1015135
05:00+4sw48935 0.0 1014151
08:00+9w46735 0.0 1014585
11:00+14wsw445337 0.1 10131683
14:00+15w334286 0.1 10112130
17:00+16wnw233974 0.0 10102068
20:00+13sw226090 0.0 101035
30 may, mon
mon3023:00+10wnw2264100 0.0 101135
02:00+8wnw238096 0.0 101160
05:00+8w3581100 0.0 1012205
08:00+9w457935 0.0 1013415
11:00+14wnw445814 0.1 10131218
14:00+15wnw654991 0.1 10131752
17:00+15wnw454664 0.0 10141901
20:00+12w34635 0.0 101593
31 may, tue
tue3123:00+9w116565 0.0 101812
02:00+6sw22765 0.0 101812
05:00+5sw11826 0.0 101810
08:00+11se11625 0.0 1019287
11:00+16se3451100 0.0 10171310
14:00+20s3440100 0.0 10152283
17:00+20wsw2450100 0.0 10141676
20:00+17nnw1159100 0.0 101313
1 june, wed
wed123:00+11n2598100 4.2 1016251
02:00+10s119684 7.6 101670
05:00+9sw35976 0.0 101688
08:00+13wsw468649 0.0 1017564
11:00+17w4753100 0.0 10161455
14:00+20sw5745100 0.0 10142468
17:00+13nw2486100 2.1 1016287
20:00+14sw388423 2.8 1015280
2 june, thu
thu223:00+10wsw379120 0.5 1016120
02:00+9wsw49910 0.5 1017184
05:00+7wsw511920 0.0 1019283
08:00+11w588559 0.0 1020574
11:00+13w566898 0.1 10211187
14:00+15wsw455997 0.1 10211209
17:00+17sw55525 0.0 10211241
20:00+15sw33650 0.0 102039